Airfield :
LOGIN :

Register | Disclaimer

   EN    FR    IT 

 










Legend :    VFR   Marginal VFR   IFR   Intensive IFR   Very Intensive IFR
Visi :
Ceiling :
>= 8 km
>= 3000ft
5 to 8 km
1000 to 3000 ft
1500m to 5 km
500 to 1000 ft
800 to 1500m
200 to 500 ft
< 800m
< 200 ft
Symbols :   Thunderstorms  Fog  Heavy snow  Heavy precipitations  Wind > 20 kt
SIGMETs :     Misc.  Thunderstorms  Icing  Turbulence  Mountain Waves  Volcanic Ashes







- Airport Elevation : 29 ft


LIRM - Grazzanise Caserta

CURRENT METAR :
  • 161855Z 24002KT 9999 FEW025 SCT070 25/24 Q1013 RMK BKN VIS MIN 9999 WIND THR06 16002KT BLU

EXPIRED METARs :
  • 161755Z 01002KT 9999 FEW025 FEW030CB SCT070 27/25 Q1013
  • 161655Z 33004KT 9999 FEW020 FEW025CB 26/24 Q1012 RETS RMK BKN SCT100 VIS MIN 9999 WIND THR06 32003KT BLU

TAF TAF LIRM
Valid from the 16 at 18:00 until the 17 at 03:00 UTC


161700Z 1618/1703 33005KT 9999 FEW030
TEMPO 1618/1621 5000 TSRA FEW020CB SCT030
No reported NOTAMs for that airfield.



MET'MAP, your aeronautical weather chart ! - Copyright ORBIFLY December 2007 - Disclaimer

ORBIFLY MET'MAP TEAM :

Programming & Development : Alexandra Zaïnal
Concept & Development : Baudouin d'Aumeries
Co-Development & Prog : Marc-Olivier Méhu
Technical & hardware support : Manuel Goepfert

Contact : metmap@orbifly.com




SOURCES & CREDITS :

   NOAA